MSA237 LIMC-EGHI

Flight info

Callsign MSA237
Flight time N/A
Altitude 36000
Route BUGUP
Aircraft B738/M-SDE2E3FGHIRWXY/LB1

Departure

Time N/A
Airport Milan Malpensa International Airport (LIMC)

Arrival

Time 2026-05-07 18:32
Airport Southampton Airport (EGHI)
Time Latitude Longitude Altitude Speed Heading
2026-05-07 17:57 51.55802 0.65878 36000 ft 449 kts 328°
2026-05-07 17:57 51.57576 0.64168 35995 ft 449 kts 332°
2026-05-07 17:57 51.61246 0.61115 35881 ft 450 kts 324°
2026-05-07 17:57 51.63523 0.57682 35609 ft 449 kts 306°
2026-05-07 17:58 51.65057 0.53355 35368 ft 445 kts 290°
2026-05-07 17:58 51.65957 0.48588 35149 ft 446 kts 283°
2026-05-07 17:58 51.66654 0.43715 34910 ft 448 kts 282°
2026-05-07 17:58 51.67296 0.38801 34820 ft 447 kts 281°
2026-05-07 17:59 51.68526 0.29041 34451 ft 437 kts 281°
2026-05-07 17:59 51.69118 0.24265 34200 ft 429 kts 281°
2026-05-07 17:59 51.69694 0.19593 33939 ft 422 kts 281°
2026-05-07 18:00 51.70258 0.14990 33689 ft 415 kts 281°
2026-05-07 18:00 51.70813 0.10458 33422 ft 408 kts 281°
2026-05-07 18:00 51.71358 0.05991 33174 ft 406 kts 281°
2026-05-07 18:00 51.71900 0.01544 32911 ft 407 kts 281°
2026-05-07 18:01 51.72449 -0.02975 32383 ft 414 kts 281°
2026-05-07 18:01 51.73003 -0.07538 31905 ft 419 kts 281°
2026-05-07 18:01 51.73563 -0.12166 31412 ft 422 kts 281°
2026-05-07 18:01 51.74125 -0.16822 30921 ft 424 kts 281°
2026-05-07 18:02 51.75247 -0.26132 29919 ft 419 kts 281°
2026-05-07 18:02 51.75798 -0.30724 29424 ft 416 kts 281°
2026-05-07 18:02 51.76348 -0.35311 28923 ft 415 kts 281°
2026-05-07 18:03 51.76887 -0.39820 28437 ft 414 kts 281°
2026-05-07 18:03 51.77437 -0.44422 27943 ft 419 kts 281°
2026-05-07 18:03 51.77991 -0.49076 27450 ft 424 kts 281°
2026-05-07 18:03 51.78547 -0.53749 26957 ft 425 kts 281°
2026-05-07 18:04 51.79104 -0.58440 26457 ft 425 kts 281°
2026-05-07 18:04 51.79659 -0.63125 25960 ft 425 kts 281°
2026-05-07 18:04 51.80208 -0.67764 25466 ft 424 kts 281°
2026-05-07 18:04 51.80765 -0.72482 24971 ft 423 kts 281°
2026-05-07 18:05 51.81316 -0.77154 24470 ft 422 kts 281°
2026-05-07 18:05 51.81862 -0.81791 23970 ft 418 kts 281°
2026-05-07 18:05 51.82402 -0.86388 23465 ft 413 kts 281°
2026-05-07 18:05 51.82936 -0.90935 22963 ft 409 kts 280°
2026-05-07 18:06 51.83462 -0.95436 22461 ft 407 kts 280°
2026-05-07 18:06 51.83987 -0.99926 21965 ft 404 kts 280°
2026-05-07 18:06 51.84505 -1.04371 21466 ft 401 kts 280°
2026-05-07 18:06 51.85020 -1.08789 20965 ft 397 kts 280°
2026-05-07 18:07 51.85528 -1.13157 20465 ft 393 kts 280°
2026-05-07 18:07 51.86030 -1.17486 19904 ft 390 kts 280°
2026-05-07 18:07 51.86536 -1.21852 18979 ft 398 kts 280°
2026-05-07 18:07 51.87042 -1.26228 18183 ft 401 kts 280°
2026-05-07 18:08 51.87555 -1.30663 17495 ft 400 kts 280°
2026-05-07 18:08 51.88066 -1.35089 16797 ft 399 kts 280°
2026-05-07 18:08 51.88575 -1.39505 16105 ft 398 kts 280°
2026-05-07 18:08 51.89082 -1.43909 15399 ft 397 kts 280°
2026-05-07 18:09 51.89586 -1.48301 14698 ft 395 kts 280°
2026-05-07 18:09 51.90087 -1.52668 14006 ft 393 kts 280°
2026-05-07 18:09 51.90584 -1.57014 13299 ft 392 kts 280°
2026-05-07 18:09 51.91078 -1.61330 12605 ft 390 kts 280°
2026-05-07 18:10 51.91569 -1.65634 11908 ft 387 kts 280°
2026-05-07 18:10 51.92040 -1.69916 11352 ft 383 kts 277°
2026-05-07 18:10 51.91869 -1.74183 11172 ft 385 kts 253°
2026-05-07 18:10 51.90585 -1.77980 11069 ft 387 kts 229°
2026-05-07 18:11 51.88498 -1.80501 11001 ft 369 kts 203°
2026-05-07 18:11 51.86889 -1.81220 10990 ft 356 kts 186°
2026-05-07 18:11 51.83793 -1.80232 10985 ft 334 kts 149°
2026-05-07 18:11 51.82102 -1.77728 11024 ft 332 kts 130°
2026-05-07 18:12 51.80495 -1.75050 10998 ft 330 kts 140°
2026-05-07 18:12 51.78722 -1.72722 11005 ft 328 kts 141°
2026-05-07 18:12 51.76982 -1.70320 10989 ft 328 kts 136°
2026-05-07 18:12 51.75566 -1.67459 10990 ft 328 kts 118°
2026-05-07 18:13 51.74618 -1.64113 11006 ft 327 kts 113°
2026-05-07 18:13 51.73741 -1.60718 11000 ft 328 kts 112°
2026-05-07 18:13 51.72869 -1.57318 11001 ft 329 kts 112°
2026-05-07 18:13 51.71995 -1.53940 11001 ft 329 kts 112°
2026-05-07 18:14 51.71105 -1.50531 11002 ft 330 kts 113°
2026-05-07 18:14 51.70185 -1.47140 10990 ft 330 kts 118°
2026-05-07 18:14 51.68759 -1.44269 11006 ft 329 kts 140°
2026-05-07 18:14 51.66845 -1.42251 11009 ft 329 kts 154°
2026-05-07 18:15 51.64686 -1.41056 11009 ft 329 kts 166°
2026-05-07 18:15 51.62456 -1.40204 11004 ft 329 kts 167°
2026-05-07 18:15 51.60225 -1.39399 10935 ft 330 kts 167°
2026-05-07 18:15 51.57961 -1.38585 10635 ft 335 kts 167°
2026-05-07 18:16 51.55667 -1.37753 10395 ft 340 kts 167°
2026-05-07 18:16 51.53374 -1.36911 10136 ft 335 kts 167°
2026-05-07 18:16 51.51157 -1.36089 9883 ft 327 kts 167°
2026-05-07 18:16 51.48960 -1.35271 9625 ft 320 kts 167°
2026-05-07 18:17 51.46785 -1.34457 9365 ft 314 kts 167°
2026-05-07 18:17 51.44710 -1.33681 9117 ft 308 kts 167°
2026-05-07 18:17 51.42638 -1.32906 8859 ft 302 kts 167°
2026-05-07 18:17 51.40605 -1.32146 8606 ft 298 kts 167°
2026-05-07 18:18 51.38602 -1.31399 8352 ft 293 kts 167°
2026-05-07 18:18 51.36630 -1.30662 8111 ft 288 kts 167°
2026-05-07 18:18 51.34699 -1.29943 8023 ft 282 kts 167°
2026-05-07 18:18 51.32803 -1.29237 8006 ft 279 kts 167°
2026-05-07 18:19 51.30906 -1.28531 8014 ft 281 kts 167°
2026-05-07 18:19 51.29637 -1.28060 7935 ft 284 kts 167°
2026-05-07 18:19 51.27694 -1.27339 7674 ft 288 kts 167°
2026-05-07 18:19 51.25100 -1.26376 7337 ft 284 kts 167°
2026-05-07 18:20 51.23828 -1.25904 7167 ft 281 kts 167°
2026-05-07 18:20 51.21941 -1.25203 7040 ft 277 kts 167°
2026-05-07 18:20 51.20026 -1.24775 6996 ft 279 kts 182°
2026-05-07 18:20 51.18132 -1.25272 6998 ft 276 kts 198°
2026-05-07 18:21 51.16333 -1.26333 7000 ft 276 kts 202°
2026-05-07 18:21 51.14553 -1.27479 7000 ft 276 kts 202°
2026-05-07 18:21 51.12800 -1.28611 6999 ft 276 kts 202°
2026-05-07 18:21 51.11017 -1.29746 7002 ft 276 kts 202°
2026-05-07 18:22 51.09227 -1.30871 6997 ft 276 kts 201°
2026-05-07 18:22 51.08041 -1.31611 6940 ft 278 kts 201°
2026-05-07 18:22 51.05654 -1.33096 6959 ft 274 kts 201°
2026-05-07 18:22 51.03826 -1.33992 6973 ft 277 kts 191°
2026-05-07 18:23 51.01965 -1.34775 6977 ft 276 kts 198°
2026-05-07 18:23 51.00092 -1.35517 6847 ft 291 kts 188°
2026-05-07 18:23 50.97962 -1.35783 6679 ft 320 kts 175°
2026-05-07 18:23 50.95801 -1.34824 6271 ft 328 kts 152°
2026-05-07 18:24 50.94014 -1.32565 5771 ft 329 kts 129°
2026-05-07 18:24 50.92975 -1.29535 5234 ft 301 kts 105°
2026-05-07 18:24 50.92854 -1.26406 4724 ft 279 kts 79°
2026-05-07 18:24 50.93595 -1.23695 4213 ft 263 kts 50°
2026-05-07 18:25 50.94985 -1.21987 3709 ft 249 kts 21°
2026-05-07 18:25 50.96618 -1.21268 3218 ft 239 kts 12°
2026-05-07 18:25 50.98185 -1.20746 3021 ft 217 kts 11°
2026-05-07 18:25 50.99575 -1.20296 2940 ft 191 kts 10°
2026-05-07 18:26 51.00797 -1.19902 2929 ft 169 kts 10°
2026-05-07 18:26 51.01954 -1.19526 2952 ft 168 kts 10°
2026-05-07 18:26 51.03084 -1.19154 3033 ft 166 kts 10°
2026-05-07 18:26 51.04226 -1.19129 2953 ft 165 kts 339°
2026-05-07 18:27 51.05097 -1.20216 2953 ft 156 kts 311°
2026-05-07 18:27 51.05801 -1.21451 2940 ft 147 kts 310°
2026-05-07 18:27 51.06471 -1.22638 2946 ft 144 kts 310°
2026-05-07 18:27 51.07146 -1.23835 2961 ft 146 kts 310°
2026-05-07 18:28 51.07773 -1.25096 2946 ft 146 kts 293°
2026-05-07 18:28 51.07757 -1.26636 2959 ft 143 kts 245°
2026-05-07 18:28 51.07300 -1.28021 2957 ft 144 kts 240°
2026-05-07 18:28 51.06661 -1.29281 2828 ft 153 kts 218°
2026-05-07 18:29 51.05716 -1.30000 2532 ft 150 kts 193°
2026-05-07 18:29 51.04714 -1.30328 2263 ft 144 kts 193°
2026-05-07 18:29 51.03749 -1.30734 1988 ft 143 kts 197°
2026-05-07 18:29 51.02821 -1.31289 1717 ft 142 kts 204°
2026-05-07 18:30 51.01903 -1.31892 1419 ft 143 kts 199°
2026-05-07 18:30 51.00973 -1.32349 1210 ft 138 kts 195°
2026-05-07 18:30 51.00060 -1.32792 1021 ft 138 kts 198°
2026-05-07 18:30 50.99150 -1.33371 830 ft 142 kts 202°
2026-05-07 18:31 50.98214 -1.33876 628 ft 142 kts 199°
2026-05-07 18:31 50.97299 -1.34407 455 ft 138 kts 199°
2026-05-07 18:31 50.96399 -1.34904 247 ft 139 kts 198°
2026-05-07 18:31 50.95487 -1.35419 53 ft 139 kts 198°
2026-05-07 18:32 50.94765 -1.35824 41 ft 57 kts 199°
2026-05-07 18:32 50.94570 -1.35958 38 ft 17 kts 248°
2026-05-07 18:32 50.94591 -1.36090 37 ft 13 kts 303°